TimePST,TemperatureF,Dew PointF,Humidity,Sea Level PressureIn,VisibilityMPH,Wind Direction,Wind SpeedMPH,Gust SpeedMPH,PrecipitationIn,Events,Conditions,WindDirDegrees,DateUTC
12:53 AM,54.0,50.0,86,30.06,10.0,Calm,Calm,-,N/A,,Overcast,0,2012-11-17 08:53:00
1:53 AM,55.0,50.0,83,30.04,10.0,Calm,Calm,-,N/A,,Overcast,0,2012-11-17 09:53:00
2:53 AM,54.0,50.0,86,30.04,10.0,Calm,Calm,-,N/A,,Overcast,0,2012-11-17 10:53:00
3:15 AM,53.6,48.2,82,30.07,10.0,Calm,Calm,-,N/A,,Overcast,0,2012-11-17 11:15:00
3:53 AM,54.0,50.0,86,30.04,10.0,ESE,4.6,-,N/A,,Overcast,110,2012-11-17 11:53:00
4:53 AM,52.0,48.9,89,30.05,10.0,Calm,Calm,-,N/A,,Mostly Cloudy,0,2012-11-17 12:53:00
5:22 AM,51.8,48.2,88,30.08,10.0,Calm,Calm,-,N/A,,Mostly Cloudy,0,2012-11-17 13:22:00
5:31 AM,51.8,48.2,88,30.08,10.0,Calm,Calm,-,N/A,,Overcast,0,2012-11-17 13:31:00
5:53 AM,50.0,48.0,93,30.07,10.0,Calm,Calm,-,N/A,,Overcast,0,2012-11-17 13:53:00
6:53 AM,50.0,46.9,89,30.08,10.0,Calm,Calm,-,N/A,,Scattered Clouds,0,2012-11-17 14:53:00
7:53 AM,57.9,51.1,78,30.09,10.0,Calm,Calm,-,N/A,,Mostly Cloudy,0,2012-11-17 15:53:00
8:34 AM,60.8,51.8,72,30.12,10.0,Calm,Calm,-,N/A,,Overcast,0,2012-11-17 16:34:00
8:53 AM,62.1,53.1,72,30.10,10.0,Calm,Calm,-,N/A,,Overcast,0,2012-11-17 16:53:00
9:46 AM,64.4,53.6,68,30.13,10.0,WNW,4.6,-,N/A,,Mostly Cloudy,290,2012-11-17 17:46:00
9:53 AM,64.0,54.0,70,30.11,10.0,West,5.8,-,N/A,,Mostly Cloudy,280,2012-11-17 17:53:00
10:53 AM,64.9,52.0,63,30.09,10.0,West,9.2,-,N/A,,Mostly Cloudy,280,2012-11-17 18:53:00
11:03 AM,64.4,53.6,68,30.11,10.0,WNW,9.2,-,N/A,,Mostly Cloudy,290,2012-11-17 19:03:00
11:53 AM,68.0,51.1,55,30.06,10.0,West,8.1,-,N/A,,Mostly Cloudy,260,2012-11-17 19:53:00
12:53 PM,66.0,51.1,59,30.05,10.0,West,12.7,-,N/A,,Mostly Cloudy,270,2012-11-17 20:53:00
1:53 PM,68.0,53.1,59,30.04,10.0,West,15.0,-,N/A,,Mostly Cloudy,270,2012-11-17 21:53:00
2:53 PM,64.0,53.1,67,30.05,10.0,West,11.5,-,N/A,,Mostly Cloudy,280,2012-11-17 22:53:00
3:53 PM,63.0,53.1,70,30.05,10.0,WNW,8.1,-,N/A,,Partly Cloudy,290,2012-11-17 23:53:00
4:53 PM,61.0,54.0,78,30.05,10.0,WNW,4.6,-,N/A,,Scattered Clouds,290,2012-11-18 00:53:00
5:53 PM,59.0,54.0,83,30.06,10.0,WNW,5.8,-,N/A,,Mostly Cloudy,290,2012-11-18 01:53:00
6:53 PM,59.0,55.0,87,30.07,10.0,Calm,Calm,-,N/A,,Overcast,0,2012-11-18 02:53:00
7:53 PM,57.9,55.0,90,30.07,10.0,Calm,Calm,-,N/A,,Overcast,0,2012-11-18 03:53:00
8:03 PM,57.2,53.6,88,30.10,10.0,Calm,Calm,-,N/A,,Overcast,0,2012-11-18 04:03:00
8:20 PM,57.2,53.6,88,30.10,10.0,Calm,Calm,-,N/A,,Overcast,0,2012-11-18 04:20:00
8:53 PM,55.9,53.1,90,30.09,10.0,Calm,Calm,-,N/A,,Overcast,0,2012-11-18 04:53:00
9:53 PM,55.0,53.1,93,30.09,10.0,Calm,Calm,-,N/A,,Overcast,0,2012-11-18 05:53:00
10:53 PM,54.0,52.0,93,30.09,10.0,Calm,Calm,-,N/A,,Overcast,0,2012-11-18 06:53:00
11:53 PM,53.1,51.1,93,30.09,10.0,Calm,Calm,-,N/A,,Overcast,0,2012-11-18 07:53:00